Regional Weather Roundup
Issued by NWS

Home | Current Version | Previous Version | Text Only | Print | Product List | Glossary On
Versions: 1 2 3 4 5 6 7 8 9 10 11 12 13 14 15 16 17 18 19 20 21 22 23 24 25 26 27 28 29 30 31 32 33 34 35 36 37 38 39 40 41 42 43 44 45 46 47 48 49 50
403
ASUS43 KFSD 031110
RWRSD

WEATHER ROUNDUP FOR SOUTH DAKOTA
NATIONAL WEATHER SERVICE SIOUX FALLS SD
500 AM CST SAT DEC 03 2016

NOTE: "FAIR" INDICATES FEW OR NO CLOUDS BELOW 12,000 FEET WITH NO
SIGNIFICANT WEATHER AND/OR OBSTRUCTIONS TO VISIBILITY.


SDZ001>005-009-010-012>017-031200-
NORTHWEST AND NORTH CENTRAL SOUTH DAKOTA

CITY           SKY/WX    TMP DP  RH WIND       PRES   REMARKS
BUFFALO          N/A     20  17  88 S7        29.86F WCI  11
FAITH            N/A     21  19  92 SE17      29.99F WCI   7
MOBRIDGE       CLOUDY    26  24  92 S13       30.08F WCI  15
$$

SDZ012>016-024>037-041>051-057-063-072>074-031200-
SOUTHWEST AND SOUTH CENTRAL SOUTH DAKOTA

CITY           SKY/WX    TMP DP  RH WIND       PRES   REMARKS
RAPID CTY ARPT CLEAR     21  17  84 S7        29.97F WCI  12
PIERRE         CLEAR     20  18  92 SE8       30.11F WCI  10
CUSTER         PTCLDY    20  17  88 SW6       29.90F WCI  12
ELLSWORTH AFB  CLEAR     22  19  85 S9        29.94F WCI  12
PHILIP         CLOUDY    11   8  88 CALM      30.06F
PINE RIDGE     CLOUDY    30  24  78 S15G25    30.02F WCI  19
SPEARFISH      FAIR      32  18  55 NW8       29.90F WCI  25
WINNER         CLOUDY    27  22  81 S9        30.13  WCI  18
$$

SDZ004>011-016>023-039-040-031200-
NORTHEAST SOUTH DAKOTA

CITY           SKY/WX    TMP DP  RH WIND       PRES   REMARKS
ABERDEEN       CLOUDY    28  24  85 S10       30.21  WCI  19
WATERTOWN      CLOUDY    20  17  88 S6        30.22  WCI  12
BROOKINGS      CLOUDY    25  21  85 SE8       30.24F WCI  16
SISSETON         N/A     22  17  81 S5        30.24S WCI  16
$$

SDZ017-020-022-023-036>040-048>070-031200-
SOUTHEAST SOUTH DAKOTA

CITY           SKY/WX    TMP DP  RH WIND       PRES   REMARKS
SIOUX FALLS    CLOUDY    31  27  85 S6        30.27F WCI  25
HURON          CLEAR     24  23  96 SE8       30.22F WCI  15
CHAMBERLAIN    MOCLDY    24  24  97 CALM      30.16F FOG
MITCHELL       CLEAR     27  26  96 SE10      30.24F WCI  17
YANKTON        CLEAR     27  21  80 E7        30.26F WCI  19
$$

ABBREVIATIONS USED IN REMARKS
   TC - TEMPERATURE IN CELSIUS
  WCI - WIND CHILL INDEX
   HX - HEAT INDEX
  VSB - VISIBILITY





USA.gov is the U.S. government's official web portal to all federal, state and local government web resources and services.